TimeEDT,TemperatureF,Dew PointF,Humidity,Sea Level PressureIn,VisibilityMPH,Wind Direction,Wind SpeedMPH,Gust SpeedMPH,PrecipitationIn,Events,Conditions,WindDirDegrees,DateUTC
12:15 AM,43.9,41.4,91,29.65,10.0,Calm,Calm,-,N/A,,Clear,0,2013-10-07 04:15:00
12:35 AM,42.4,40.1,91,29.65,7.0,Calm,Calm,-,N/A,,Clear,0,2013-10-07 04:35:00
12:54 AM,42.4,40.1,91,29.64,5.0,Calm,Calm,-,N/A,,Clear,0,2013-10-07 04:54:00
1:15 AM,41.2,38.8,91,29.64,10.0,Calm,Calm,-,N/A,,Mostly Cloudy,0,2013-10-07 05:15:00
1:35 AM,42.4,40.3,92,29.64,10.0,Calm,Calm,-,N/A,,Overcast,0,2013-10-07 05:35:00
1:54 AM,43.7,41.7,93,29.64,10.0,Calm,Calm,-,N/A,,Overcast,0,2013-10-07 05:54:00
2:15 AM,43.9,41.9,93,29.64,10.0,Calm,Calm,-,N/A,,Overcast,0,2013-10-07 06:15:00
2:35 AM,45.7,43.3,92,29.64,10.0,SW,5.8,-,N/A,,Overcast,220,2013-10-07 06:35:00
2:54 AM,49.1,46.0,89,29.64,10.0,SW,6.9,-,N/A,,Overcast,220,2013-10-07 06:54:00
3:15 AM,49.1,45.5,87,29.63,10.0,SW,8.1,-,N/A,,Overcast,220,2013-10-07 07:15:00
3:35 AM,49.1,45.9,89,29.63,10.0,SSW,6.9,-,N/A,Rain,Light Rain,210,2013-10-07 07:35:00
3:54 AM,49.1,46.0,89,29.62,10.0,Calm,Calm,-,N/A,,Overcast,0,2013-10-07 07:54:00
4:15 AM,49.1,45.9,89,29.62,10.0,SSW,4.6,-,N/A,,Overcast,210,2013-10-07 08:15:00
4:34 AM,49.1,46.0,89,29.62,10.0,SW,6.9,-,N/A,,Overcast,220,2013-10-07 08:34:00
4:55 AM,49.1,46.0,89,29.63,10.0,SW,8.1,-,N/A,,Overcast,220,2013-10-07 08:55:00
5:15 AM,49.1,45.9,89,29.62,10.0,SSW,6.9,-,N/A,,Overcast,210,2013-10-07 09:15:00
5:34 AM,49.1,45.7,88,29.62,10.0,South,6.9,-,N/A,,Overcast,190,2013-10-07 09:34:00
5:55 AM,49.1,45.5,87,29.61,10.0,SW,8.1,-,N/A,,Overcast,230,2013-10-07 09:55:00
6:15 AM,49.1,45.5,87,29.62,10.0,SW,8.1,-,N/A,,Overcast,220,2013-10-07 10:15:00
6:34 AM,49.1,45.7,88,29.63,10.0,SW,6.9,-,N/A,,Mostly Cloudy,220,2013-10-07 10:34:00
6:55 AM,46.4,43.7,90,29.64,10.0,WSW,4.6,-,N/A,,Scattered Clouds,240,2013-10-07 10:55:00
7:15 AM,46.0,43.3,90,29.64,10.0,SSW,6.9,-,N/A,,Scattered Clouds,200,2013-10-07 11:15:00
7:34 AM,49.1,45.7,88,29.63,10.0,SW,5.8,-,N/A,,Mostly Cloudy,220,2013-10-07 11:34:00
7:55 AM,49.1,46.0,89,29.64,10.0,SW,4.6,-,N/A,,Overcast,230,2013-10-07 11:55:00
8:15 AM,50.9,47.7,89,29.64,10.0,SW,6.9,-,N/A,,Overcast,220,2013-10-07 12:15:00
8:34 AM,51.1,47.8,89,29.65,10.0,SW,8.1,-,N/A,,Overcast,230,2013-10-07 12:34:00
8:55 AM,50.7,47.7,89,29.65,10.0,SW,6.9,-,N/A,Rain,Rain,230,2013-10-07 12:55:00
9:14 AM,51.4,48.6,90,29.65,10.0,WSW,8.1,-,N/A,,Drizzle,240,2013-10-07 13:14:00
9:35 AM,51.4,48.6,90,29.67,10.0,West,6.9,-,N/A,Rain,Rain,260,2013-10-07 13:35:00
9:55 AM,51.4,48.6,90,29.68,7.0,NW,10.4,-,N/A,Rain,Light Rain,310,2013-10-07 13:55:00
10:14 AM,51.4,48.6,90,29.69,2.0,NW,11.5,18.4,N/A,Rain,Light Rain,320,2013-10-07 14:14:00
10:35 AM,51.4,48.2,89,29.70,5.0,NW,9.2,16.1,N/A,Rain,Light Rain,320,2013-10-07 14:35:00
10:55 AM,50.2,46.9,89,29.72,10.0,NW,10.4,17.3,N/A,Rain,Light Rain,310,2013-10-07 14:55:00
11:14 AM,49.1,45.0,86,29.73,10.0,NW,11.5,-,N/A,Rain,Light Rain,320,2013-10-07 15:14:00
11:35 AM,49.1,45.5,87,29.74,10.0,NW,8.1,-,N/A,,Overcast,310,2013-10-07 15:35:00
11:55 AM,51.6,47.3,85,29.75,10.0,NW,9.2,19.6,N/A,,Mostly Cloudy,310,2013-10-07 15:55:00
12:14 PM,51.4,45.0,79,29.76,10.0,NW,9.2,26.5,N/A,,Mostly Cloudy,320,2013-10-07 16:14:00
12:35 PM,55.2,46.0,71,29.76,10.0,WNW,15.0,18.4,N/A,,Scattered Clouds,290,2013-10-07 16:35:00
12:55 PM,55.6,46.0,70,29.77,10.0,WNW,13.8,20.7,N/A,,Mostly Cloudy,300,2013-10-07 16:55:00
1:14 PM,56.5,45.7,67,29.78,10.0,WNW,12.7,20.7,N/A,,Mostly Cloudy,300,2013-10-07 17:14:00
1:35 PM,56.5,44.6,64,29.78,10.0,WNW,8.1,20.7,N/A,,Mostly Cloudy,300,2013-10-07 17:35:00
1:55 PM,56.5,43.7,62,29.79,10.0,WNW,10.4,19.6,N/A,,Mostly Cloudy,300,2013-10-07 17:55:00
2:14 PM,56.5,42.3,59,29.79,10.0,NW,16.1,21.9,N/A,,Mostly Cloudy,310,2013-10-07 18:14:00
2:35 PM,58.3,42.8,56,29.80,10.0,West,16.1,21.9,N/A,,Mostly Cloudy,270,2013-10-07 18:35:00
2:55 PM,56.5,42.8,60,29.81,10.0,West,12.7,-,N/A,,Overcast,280,2013-10-07 18:55:00
3:14 PM,56.5,43.0,61,29.82,10.0,WNW,16.1,20.7,N/A,,Overcast,290,2013-10-07 19:14:00
3:35 PM,59.0,43.3,56,29.84,10.0,West,17.3,27.6,N/A,,Overcast,280,2013-10-07 19:35:00
3:55 PM,56.5,43.7,62,29.85,10.0,WNW,13.8,20.7,N/A,,Mostly Cloudy,290,2013-10-07 19:55:00
4:14 PM,56.7,44.4,64,29.86,10.0,WNW,13.8,19.6,N/A,,Mostly Cloudy,290,2013-10-07 20:14:00
4:35 PM,56.5,45.3,66,29.87,10.0,West,13.8,24.2,N/A,,Overcast,260,2013-10-07 20:35:00
4:54 PM,56.5,44.2,64,29.87,10.0,West,6.9,18.4,N/A,,Mostly Cloudy,280,2013-10-07 20:54:00
5:15 PM,59.0,43.9,57,29.89,10.0,West,13.8,21.9,N/A,,Overcast,270,2013-10-07 21:15:00
5:35 PM,56.5,43.5,62,29.90,10.0,West,11.5,-,N/A,,Overcast,280,2013-10-07 21:35:00
5:54 PM,55.0,44.2,67,29.91,10.0,West,6.9,-,N/A,,Scattered Clouds,270,2013-10-07 21:54:00
6:15 PM,56.5,43.7,62,29.91,10.0,WSW,9.2,-,N/A,,Scattered Clouds,250,2013-10-07 22:15:00
6:35 PM,56.5,44.8,65,29.92,10.0,West,6.9,-,N/A,,Scattered Clouds,260,2013-10-07 22:35:00
6:54 PM,54.5,44.4,69,29.93,10.0,WSW,5.8,-,N/A,,Clear,250,2013-10-07 22:54:00
7:15 PM,52.2,43.7,73,29.93,10.0,WSW,5.8,-,N/A,,Scattered Clouds,250,2013-10-07 23:15:00
7:35 PM,51.4,44.1,76,29.94,10.0,WSW,5.8,-,N/A,,Clear,250,2013-10-07 23:35:00
7:54 PM,51.4,45.1,79,29.96,10.0,WSW,3.5,-,N/A,,Clear,250,2013-10-07 23:54:00
8:15 PM,50.4,45.3,83,29.96,10.0,West,3.5,-,N/A,,Clear,260,2013-10-08 00:15:00
8:35 PM,49.1,44.2,83,29.97,10.0,WSW,3.5,-,N/A,,Clear,240,2013-10-08 00:35:00
8:54 PM,48.6,44.8,87,29.98,10.0,WSW,3.5,-,N/A,,Scattered Clouds,250,2013-10-08 00:54:00
9:15 PM,48.2,44.1,86,29.99,10.0,Calm,Calm,-,N/A,,Mostly Cloudy,0,2013-10-08 01:15:00
9:35 PM,44.6,41.2,88,30.00,10.0,Calm,Calm,-,N/A,,Mostly Cloudy,0,2013-10-08 01:35:00
9:54 PM,43.9,41.2,90,30.01,10.0,Calm,Calm,-,N/A,,Scattered Clouds,0,2013-10-08 01:54:00
10:15 PM,42.3,39.7,91,30.02,7.0,Calm,Calm,-,N/A,,Clear,0,2013-10-08 02:15:00
10:35 PM,41.4,39.0,91,30.03,10.0,Calm,Calm,-,N/A,,Clear,0,2013-10-08 02:35:00
10:54 PM,43.3,41.0,91,30.04,10.0,Calm,Calm,-,N/A,,Clear,0,2013-10-08 02:54:00
11:15 PM,41.2,38.7,91,30.05,10.0,Calm,Calm,-,N/A,,Clear,0,2013-10-08 03:15:00
11:35 PM,41.2,38.8,91,30.06,10.0,Calm,Calm,-,N/A,,Clear,0,2013-10-08 03:35:00
11:54 PM,39.2,37.0,92,30.07,7.0,Calm,Calm,-,N/A,,Clear,0,2013-10-08 03:54:00